EW6950 Weather Reports


time (UTC)temp
C
wind
direction
speed
KPH
gust
KPH
rain 1hr
cm
rain 24hr
cm
rain mn
cm
humidity
%
barometer
mb
20180218181100 1 129 1.6 3.2 0.00 0.00 0.00 86 1023.2
20180218180600 1 123 1.6 6.4 0.00 0.00 0.00 86 1023.2
20180218180057 1 123 1.6 6.4 0.00 0.00 0.00 85 1023.2
20180218175557 1 122 3.2 6.4 0.00 0.00 0.00 85 1023.0
20180218175057 1 119 3.2 6.4 0.00 0.00 0.00 84 1023.0
20180218174557 1 113 4.8 8.0 0.00 0.00 0.00 84 1023.0
20180218174058 1 101 4.8 8.0 0.00 0.00 0.00 83 1023.0
20180218173557 1 114 3.2 6.4 0.00 0.00 0.00 83 1023.0
20180218173058 2 98 3.2 6.4 0.00 0.00 0.00 82 1023.0
20180218172557 2 115 1.6 4.8 0.00 0.00 0.00 81 1023.0
20180218172058 2 115 1.6 3.2 0.00 0.00 0.00 81 1023.0
20180218171558 2 115 1.6 4.8 0.00 0.00 0.00 80 1022.9
20180218171057 2 120 1.6 4.8 0.00 0.00 0.00 80 1023.0
20180218170558 2 120 1.6 3.2 0.00 0.00 0.00 79 1022.9
20180218170058 2 120 1.6 3.2 0.00 0.00 0.00 79 1023.0
20180218165558 3 120 1.6 3.2 0.00 0.00 0.00 79 1023.0
20180218165057 3 120 1.6 3.2 0.00 0.00 0.00 78 1023.1
20180218164558 3 120 3.2 4.8 0.00 0.00 0.00 78 1023.1
20180218164057 3 120 3.2 4.8 0.00 0.00 0.00 78 1023.1
20180218163557 3 113 3.2 4.8 0.00 0.00 0.00 78 1023.1
20180218163055 3 113 1.6 4.8 0.00 0.00 0.00 78 1023.2
20180218162554 3 113 1.6 4.8 0.00 0.00 0.00 77 1023.2
20180218162053 3 113 3.2 9.7 0.00 0.00 0.00 77 1023.1
20180218161555 3 115 3.2 9.7 0.00 0.00 0.00 76 1023.2
20180218161051 3 192 1.6 6.4 0.00 0.00 0.00 76 1023.2
20180218160552 4 189 3.2 8.0 0.00 0.00 0.00 76 1023.2
20180218160049 4 111 4.8 11.3 0.00 0.00 0.00 75 1023.2
20180218155549 4 117 3.2 11.3 0.00 0.00 0.00 74 1023.1
20180218155049 4 115 3.2 8.0 0.00 0.00 0.00 74 1023.2
20180218154607 4 175 4.8 8.0 0.00 0.00 0.00 74 1023.3
20180218154049 4 188 4.8 9.7 0.00 0.00 0.00 73 1023.3
20180218153547 4 167 4.8 9.7 0.00 0.00 0.00 73 1023.4
20180218153046 4 142 4.8 9.7 0.00 0.00 0.00 72 1023.4
20180218152546 4 164 4.8 11.3 0.00 0.00 0.00 72 1023.4
20180218152043 5 103 3.2 11.3 0.00 0.00 0.00 72 1023.4
20180218151543 5 107 3.2 6.4 0.00 0.00 0.00 71 1023.5
20180218151043 5 98 4.8 12.9 0.00 0.00 0.00 71 1023.6
20180218150543 5 111 4.8 12.9 0.00 0.00 0.00 71 1023.6
20180218150043 5 103 4.8 11.3 0.00 0.00 0.00 71 1023.6
20180218145543 5 120 4.8 11.3 0.00 0.00 0.00 70 1023.5
20180218145043 5 120 4.8 11.3 0.00 0.00 0.00 70 1023.5
20180218144542 5 167 4.8 11.3 0.00 0.00 0.00 69 1023.5
20180218144043 5 117 3.2 11.3 0.00 0.00 0.00 70 1023.6
20180218143543 5 98 4.8 11.3 0.00 0.00 0.00 69 1023.7
20180218143043 5 34 6.4 11.3 0.00 0.00 0.00 69 1023.7
20180218142543 5 109 6.4 12.9 0.00 0.00 0.00 68 1023.6
20180218142047 5 98 6.4 12.9 0.00 0.00 0.00 68 1023.7
20180218141543 5 98 4.8 12.9 0.00 0.00 0.00 70 1023.7
20180218141043 5 136 6.4 12.9 0.00 0.00 0.00 68 1023.7
20180218140543 5 104 6.4 16.1 0.00 0.00 0.00 69 1023.7
20180218140043 5 129 8.0 16.1 0.00 0.00 0.00 68 1023.8
20180218135541 5 88 6.4 16.1 0.00 0.00 0.00 69 1023.8
20180218135040 5 136 6.4 16.1 0.00 0.00 0.00 68 1023.9
20180218134540 5 122 6.4 12.9 0.00 0.00 0.00 68 1023.9
20180218134041 5 167 8.0 12.9 0.00 0.00 0.00 68 1024.0
20180218133541 5 118 6.4 12.9 0.00 0.00 0.00 68 1023.9
20180218133041 5 109 8.0 16.1 0.00 0.00 0.00 69 1024.0
20180218132541 5 108 8.0 16.1 0.00 0.00 0.00 68 1023.9
20180218132041 5 123 4.8 12.9 0.00 0.00 0.00 69 1024.0
20180218131541 5 38 4.8 9.7 0.00 0.00 0.00 69 1024.0
20180218131040 5 49 3.2 9.7 0.00 0.00 0.00 68 1024.1
20180218130539 5 144 3.2 6.4 0.00 0.00 0.00 72 1024.2
20180218130039 6 122 4.8 9.7 0.00 0.00 0.00 72 1024.2
20180218125539 5 100 3.2 9.7 0.00 0.00 0.00 72 1024.3
20180218125043 5 120 3.2 12.9 0.00 0.00 0.00 70 1024.3
20180218124540 5 110 4.8 12.9 0.00 0.00 0.00 72 1024.3
20180218124039 5 93 4.8 9.7 0.00 0.00 0.00 73 1024.3
20180218123539 5 100 4.8 9.7 0.00 0.00 0.00 73 1024.4
20180218123039 5 194 4.8 9.7 0.00 0.00 0.00 71 1024.4
20180218122538 5 131 6.4 14.5 0.00 0.00 0.00 72 1024.5
20180218122039 5 80 6.4 14.5 0.00 0.00 0.00 72 1024.5
20180218121537 5 117 4.8 12.9 0.00 0.00 0.00 74 1024.5
20180218121037 5 101 4.8 14.5 0.00 0.00 0.00 75 1024.7
20180218120537 5 199 6.4 14.5 0.00 0.00 0.00 74 1024.7
20180218120038 5 113 6.4 14.5 0.00 0.00 0.00 75 1024.9
20180218115537 5 124 6.4 14.5 0.00 0.00 0.00 75 1024.8
20180218115037 5 187 4.8 12.9 0.00 0.00 0.00 76 1024.9
20180218114538 5 175 3.2 11.3 0.00 0.00 0.00 81 1024.9
20180218114036 4 343 1.6 4.8 0.00 0.00 0.00 82 1024.9
20180218113537 3 348 3.2 4.8 0.00 0.00 0.00 83 1024.9
20180218113036 3 278 1.6 4.8 0.00 0.00 0.00 85 1024.8
20180218112537 3 217 3.2 4.8 0.00 0.00 0.00 85 1024.9
20180218112037 3 210 3.2 4.8 0.00 0.00 0.00 84 1024.8
20180218111535 3 33 1.6 4.8 0.00 0.00 0.00 87 1025.0
20180218111035 2 31 1.6 4.8 0.00 0.00 0.00 87 1025.2
20180218110534 2 37 1.6 4.8 0.00 0.00 0.00 86 1025.3
20180218110035 2 317 1.6 4.8 0.00 0.00 0.00 87 1025.2
20180218105534 2 313 1.6 6.4 0.00 0.00 0.00 89 1025.3
20180218105037 2 311 1.6 6.4 0.00 0.00 0.00 89 1025.3
20180218104534 2 293 1.6 4.8 0.00 0.00 0.00 90 1025.3
20180218104031 2 275 1.6 4.8 0.00 0.00 0.00 91 1025.3
20180218103531 2 246 1.6 4.8 0.00 0.00 0.00 92 1025.4
20180218103031 1 246 3.2 4.8 0.00 0.00 0.00 93 1025.3
20180218102530 1 246 3.2 6.4 0.00 0.00 0.00 93 1025.4
20180218102031 1 246 3.2 6.4 0.00 0.00 0.00 93 1025.4
20180218101529 1 231 1.6 6.4 0.00 0.00 0.00 94 1025.3
20180218101029 1 301 1.6 4.8 0.00 0.00 0.00 94 1025.2
20180218100529 1 300 1.6 4.8 0.00 0.00 0.00 95 1025.2
20180218100036 1 24 1.6 3.2 0.00 0.00 0.00 95 1024.9
20180218095529 0 24 1.6 3.2 0.00 0.00 0.00 95 1024.9
20180218095028 0 24 1.6 3.2 0.00 0.00 0.00 95 1025.0
20180218094530 0 24 1.6 3.2 0.00 0.00 0.00 95 1024.9
20180218094032 0 24 1.6 3.2 0.00 0.00 0.00 95 1024.9
20180218093529 0 24 1.6 3.2 0.00 0.00 0.00 95 1024.9
20180218093029 0 24 1.6 3.2 0.00 0.00 0.00 95 1024.9
20180218092529 0 24 1.6 3.2 0.00 0.00 0.00 95 1024.9
20180218092029 0 24 1.6 3.2 0.00 0.00 0.00 95 1024.8
20180218091531 0 24 1.6 4.8 0.00 0.00 0.00 96 1024.9
20180218091030 0 24 1.6 4.8 0.00 0.00 0.00 96 1024.9
20180218090530 -1 24 1.6 3.2 0.00 0.00 0.00 96 1025.0
20180218090030 -1 24 1.6 3.2 0.00 0.00 0.00 96 1025.0
20180218085529 -1 24 1.6 3.2 0.00 0.00 0.00 96 1025.0
20180218085028 -1 24 1.6 4.8 0.00 0.00 0.00 96 1025.0
20180218084529 -2 24 1.6 4.8 0.00 0.00 0.00 95 1025.0
20180218084032 -2 24 1.6 4.8 0.00 0.00 0.00 95 1025.0
20180218083528 -2 25 1.6 3.2 0.00 0.00 0.00 95 1025.0
20180218083028 -2 25 1.6 4.8 0.00 0.00 0.00 95 1025.0
20180218082529 -2 25 1.6 4.8 0.00 0.00 0.00 95 1024.9
20180218082028 -2 25 1.6 3.2 0.00 0.00 0.00 95 1025.0
20180218081528 -3 25 1.6 3.2 0.00 0.00 0.00 95 1025.0
20180218081028 -3 25 1.6 3.2 0.00 0.00 0.00 95 1025.0
20180218080528 -3 25 1.6 3.2 0.00 0.00 0.00 95 1025.2
20180218080029 -3 25 1.6 3.2 0.00 0.00 0.00 95 1025.3
20180218075528 -3 25 1.6 3.2 0.00 0.00 0.00 95 1025.3
20180218075028 -3 25 1.6 3.2 0.00 0.00 0.00 95 1025.3
20180218074525 -4 25 1.6 3.2 0.00 0.00 0.00 95 1025.3
20180218074024 -4 25 1.6 3.2 0.00 0.00 0.00 95 1025.4
20180218073524 -4 25 1.6 4.8 0.00 0.00 0.00 95 1025.3
20180218073024 -5 25 3.2 4.8 0.00 0.00 0.00 95 1025.3
20180218072524 -5 25 3.2 4.8 0.00 0.00 0.00 95 1025.3
20180218072024 -5 25 3.2 4.8 0.00 0.00 0.00 95 1025.3
20180218071520 -5 25 3.2 4.8 0.00 0.00 0.00 95 1025.3
20180218071021 -5 22 3.2 6.4 0.00 0.00 0.00 95 1025.3
20180218070521 -5 30 3.2 6.4 0.00 0.00 0.00 95 1025.3
20180218070018 -5 38 1.6 4.8 0.00 0.00 0.00 95 1025.3
20180218065518 -5 38 1.6 3.2 0.00 0.00 0.00 95 1025.3
20180218065018 -5 38 1.6 3.2 0.00 0.00 0.00 95 1025.3
20180218064518 -5 38 1.6 4.8 0.00 0.00 0.00 95 1025.3
20180218064018 -5 38 1.6 4.8 0.00 0.00 0.00 95 1025.2
20180218063518 -5 45 1.6 3.2 0.00 0.00 0.00 95 1025.2
20180218063018 -5 48 1.6 3.2 0.00 0.00 0.00 95 1025.2
20180218062518 -5 48 0.0 3.2 0.00 0.00 0.00 95 1025.2
20180218062018 -5 48 1.6 3.2 0.00 0.00 0.00 95 1025.2
20180218061518 -5 48 1.6 4.8 0.00 0.00 0.00 95 1025.2
20180218061018 -5 48 1.6 4.8 0.00 0.00 0.00 95 1025.2
20180218060518 -5 48 0.0 3.2 0.00 0.00 0.00 95 1025.2
20180218060018 -5 48 0.0 0.0 0.00 0.00 0.00 95 1025.0
20180218055518 -5 48 0.0 0.0 0.00 0.00 0.00 94 1025.0
20180218055018 -5 48 0.0 0.0 0.00 0.00 0.00 94 1025.0
20180218054518 -5 48 0.0 0.0 0.00 0.00 0.00 95 1025.0
20180218054017 -5 48 0.0 0.0 0.00 0.00 0.00 95 1025.0
20180218053518 -5 48 0.0 0.0 0.00 0.00 0.00 94 1024.9
20180218053018 -5 48 0.0 0.0 0.00 0.00 0.00 94 1024.9
20180218052515 -5 48 0.0 1.6 0.00 0.00 0.00 94 1024.9
20180218052016 -5 48 0.0 1.6 0.00 0.00 0.00 94 1024.9
20180218051516 -5 48 0.0 0.0 0.00 0.00 0.00 94 1024.9
20180218051015 -5 48 0.0 1.6 0.00 0.00 0.00 94 1024.8
20180218050516 -5 48 0.0 1.6 0.00 0.00 0.00 94 1024.7
20180218050016 -5 48 0.0 1.6 0.00 0.00 0.00 94 1024.7
20180218045515 -5 48 0.0 1.6 0.00 0.00 0.00 94 1024.7
20180218045017 -5 48 0.0 1.6 0.00 0.00 0.00 94 1024.6
20180218044518 -5 48 0.0 1.6 0.00 0.00 0.00 94 1024.7
20180218044016 -4 48 1.6 1.6 0.00 0.00 0.00 95 1024.7
20180218043514 -4 48 1.6 1.6 0.00 0.00 0.00 94 1024.7
20180218043017 -4 48 0.0 3.2 0.00 0.00 0.00 94 1024.7
20180218042515 -4 48 1.6 3.2 0.00 0.00 0.00 95 1024.6
20180218042014 -4 48 1.6 4.8 0.00 0.00 0.00 95 1024.6
20180218041514 -4 48 3.2 4.8 0.00 0.00 0.00 95 1024.6
20180218041014 -4 48 3.2 4.8 0.00 0.00 0.00 95 1024.6
20180218040513 -4 48 1.6 4.8 0.00 0.00 0.00 95 1024.6
20180218040014 -4 48 1.6 4.8 0.00 0.00 0.00 94 1024.6
20180218035514 -4 49 0.0 1.6 0.00 0.00 0.00 95 1024.7
20180218035014 -4 49 0.0 1.6 0.00 0.00 0.00 94 1024.7
20180218034511 -4 49 0.0 3.2 0.00 0.00 0.00 94 1024.6
20180218034012 -4 48 1.6 3.2 0.00 0.00 0.00 95 1024.6
20180218033511 -4 49 1.6 3.2 0.00 0.00 0.00 95 1024.6
20180218033012 -5 49 1.6 3.2 0.00 0.00 0.00 94 1024.7
20180218032511 -5 49 0.0 3.2 0.00 0.00 0.00 94 1024.7
20180218032011 -5 49 0.0 0.0 0.00 0.00 0.00 94 1024.6
20180218031511 -4 49 0.0 0.0 0.00 0.00 0.00 94 1024.7
20180218031012 -4 49 0.0 0.0 0.00 0.00 0.00 94 1024.6
20180218030512 -4 49 0.0 0.0 0.00 0.00 0.00 94 1024.7
20180218030011 -4 49 0.0 0.0 0.00 0.00 0.00 94 1024.7
20180218025509 -4 49 0.0 1.6 0.00 0.00 0.00 94 1024.7
20180218025009 -4 49 0.0 1.6 0.00 0.00 0.00 94 1024.7
20180218024509 -4 49 0.0 1.6 0.00 0.00 0.00 94 1024.7
20180218024009 -4 48 0.0 1.6 0.00 0.00 0.00 94 1024.7
20180218023509 -4 49 0.0 0.0 0.00 0.00 0.00 94 1024.7
20180218023010 -4 49 0.0 0.0 0.00 0.00 0.00 94 1024.7
20180218022509 -4 49 0.0 0.0 0.00 0.00 0.00 94 1024.7
20180218022009 -4 49 0.0 0.0 0.00 0.00 0.00 94 1024.7
20180218021510 -4 49 0.0 0.0 0.00 0.00 0.00 94 1024.7
20180218021009 -4 49 0.0 0.0 0.00 0.00 0.00 94 1024.6
20180218020507 -3 49 0.0 1.6 0.00 0.00 0.00 94 1024.6
20180218020017 -3 49 0.0 1.6 0.00 0.00 0.00 94 1024.7
20180218015506 -3 49 0.0 1.6 0.00 0.00 0.00 94 1024.7
20180218015005 -3 49 0.0 1.6 0.00 0.00 0.00 94 1024.6
20180218014506 -3 49 0.0 1.6 0.00 0.00 0.00 94 1024.5
20180218014006 -3 49 0.0 1.6 0.00 0.00 0.00 94 1024.5
20180218013505 -3 49 0.0 1.6 0.00 0.00 0.00 94 1024.5
20180218013006 -3 49 0.0 1.6 0.00 0.00 0.00 94 1024.5
20180218012505 -3 49 0.0 0.0 0.00 0.00 0.00 94 1024.5
20180218012006 -3 49 0.0 1.6 0.00 0.00 0.00 94 1024.5
20180218011506 -3 49 0.0 3.2 0.00 0.00 0.00 94 1024.5
20180218011005 -3 49 0.0 3.2 0.00 0.00 0.00 94 1024.5
20180218010505 -3 49 0.0 3.2 0.00 0.00 0.00 94 1024.6
20180218010005 -3 49 0.0 1.6 0.00 0.00 0.00 94 1024.6
20180218005506 -3 49 1.6 3.2 0.00 0.00 0.00 94 1024.6
20180218005006 -3 49 1.6 3.2 0.00 0.00 0.00 94 1024.7
20180218004505 -3 49 1.6 3.2 0.00 0.00 0.00 94 1024.6
20180218004005 -3 49 0.0 3.2 0.00 0.00 0.00 94 1024.6
20180218003505 -3 49 0.0 0.0 0.00 0.00 0.00 94 1024.6
20180218003005 -3 49 0.0 0.0 0.00 0.00 0.00 94 1024.5
20180218002506 -3 49 0.0 0.0 0.00 0.00 0.00 94 1024.5
20180218002005 -3 49 0.0 1.6 0.00 0.00 0.00 94 1024.4
20180218001505 -3 49 0.0 1.6 0.00 0.00 0.00 94 1024.5
20180218001005 -3 49 0.0 3.2 0.00 0.00 0.00 94 1024.5
20180218000506 -3 49 1.6 3.2 0.00 0.00 0.00 94 1024.5
20180218000005 -3 49 0.0 1.6 0.00 0.00 0.00 94 1024.4
20180217235506 -3 49 0.0 1.6 0.00 0.00 0.00 94 1024.3
20180217235005 -3 49 0.0 1.6 0.00 0.00 0.00 94 1024.3
20180217234506 -3 49 0.0 3.2 0.00 0.00 0.00 94 1024.4
20180217234006 -3 49 0.0 3.2 0.00 0.00 0.00 94 1024.4
20180217233505 -3 49 0.0 3.2 0.00 0.00 0.00 94 1024.4
20180217233005 -3 49 0.0 3.2 0.00 0.00 0.00 93 1024.4
20180217232505 -3 49 0.0 1.6 0.00 0.00 0.00 93 1024.4
20180217232005 -3 49 0.0 1.6 0.00 0.00 0.00 93 1024.3
20180217231505 -3 49 0.0 3.2 0.00 0.00 0.00 93 1024.2
20180217231005 -3 49 0.0 3.2 0.00 0.00 0.00 93 1024.2
20180217230505 -2 49 0.0 3.2 0.00 0.00 0.00 93 1024.1
20180217230007 -2 49 1.6 3.2 0.00 0.00 0.00 94 1024.1
20180217225504 -2 49 1.6 3.2 0.00 0.00 0.00 93 1024.1
20180217225004 -3 49 1.6 3.2 0.00 0.00 0.00 93 1024.2
20180217224503 -3 49 1.6 3.2 0.00 0.00 0.00 93 1024.1
20180217224002 -2 49 1.6 3.2 0.00 0.00 0.00 93 1024.0
20180217223502 -3 49 0.0 3.2 0.00 0.00 0.00 93 1023.9
20180217223002 -3 49 0.0 0.0 0.00 0.00 0.00 93 1023.9
20180217222501 -2 49 0.0 0.0 0.00 0.00 0.00 93 1023.8
20180217222000 -2 49 0.0 0.0 0.00 0.00 0.00 93 1023.8
20180217221500 -2 49 0.0 0.0 0.00 0.00 0.00 93 1023.8
20180217221000 -2 49 0.0 1.6 0.00 0.00 0.00 93 1023.7
20180217220500 -2 49 0.0 3.2 0.00 0.00 0.00 93 1023.6
20180217220000 -2 49 0.0 3.2 0.00 0.00 0.00 93 1023.6
20180217215500 -2 49 0.0 1.6 0.00 0.00 0.00 93 1023.6
20180217215000 -2 49 0.0 1.6 0.00 0.00 0.00 93 1023.5
20180217214502 -2 49 0.0 0.0 0.00 0.00 0.00 92 1023.5
20180217214000 -2 49 0.0 0.0 0.00 0.00 0.00 92 1023.5
20180217213500 -2 49 0.0 0.0 0.00 0.00 0.00 92 1023.4
20180217212958 -2 49 0.0 1.6 0.00 0.00 0.00 92 1023.3
20180217212458 -2 49 1.6 3.2 0.00 0.00 0.00 93 1023.3
20180217212000 -2 49 1.6 3.2 0.00 0.00 0.00 93 1023.2
20180217211504 -2 49 0.0 3.2 0.00 0.00 0.00 92 1023.2
20180217211006 -2 49 0.0 0.0 0.00 0.00 0.00 92 1023.2
20180217210506 -2 49 0.0 0.0 0.00 0.00 0.00 92 1023.1
20180217210000 -2 49 0.0 0.0 0.00 0.00 0.00 92 1023.1
20180217205459 -2 49 0.0 0.0 0.00 0.00 0.00 92 1023.2
20180217204958 -2 49 0.0 0.0 0.00 0.00 0.00 91 1023.1
20180217204457 -1 49 0.0 0.0 0.00 0.00 0.00 91 1023.1
20180217203956 -1 49 0.0 0.0 0.00 0.00 0.00 91 1023.0
20180217203505 -1 49 0.0 0.0 0.00 0.00 0.00 91 1023.0
20180217202955 -1 49 0.0 0.0 0.00 0.00 0.00 91 1022.9
20180217202457 -1 49 0.0 0.0 0.00 0.00 0.00 91 1022.9
20180217201956 -1 49 0.0 0.0 0.00 0.00 0.00 91 1022.8
20180217201455 -1 49 0.0 0.0 0.00 0.00 0.00 91 1022.8
20180217200956 -1 49 0.0 0.0 0.00 0.00 0.00 91 1022.8
20180217200456 -1 49 0.0 0.0 0.00 0.00 0.00 91 1022.8
20180217195956 -1 49 0.0 0.0 0.00 0.00 0.00 91 1022.7
20180217195456 -1 49 0.0 0.0 0.00 0.00 0.00 91 1022.6
20180217194954 -1 49 0.0 0.0 0.00 0.00 0.00 91 1022.5
20180217194454 -1 49 0.0 0.0 0.00 0.00 0.00 91 1022.5
20180217193954 -1 49 0.0 0.0 0.00 0.00 0.00 90 1022.5
20180217193454 0 49 0.0 0.0 0.00 0.00 0.00 90 1022.5
20180217192954 0 49 0.0 0.0 0.00 0.00 0.00 91 1022.5
20180217192454 0 49 0.0 0.0 0.00 0.00 0.00 90 1022.6
20180217191954 0 49 0.0 0.0 0.00 0.00 0.00 90 1022.5
20180217191454 0 49 0.0 0.0 0.00 0.00 0.00 90 1022.5
20180217190954 0 49 0.0 0.0 0.00 0.00 0.00 90 1022.5
20180217190453 0 49 0.0 0.0 0.00 0.00 0.00 89 1022.5
20180217185954 0 49 0.0 0.0 0.00 0.00 0.00 89 1022.5
20180217185454 0 49 0.0 0.0 0.00 0.00 0.00 89 1022.4
20180217184952 0 49 0.0 0.0 0.00 0.00 0.00 89 1022.3
20180217184452 0 49 0.0 0.0 0.00 0.00 0.00 88 1022.4
20180217183951 0 49 0.0 0.0 0.00 0.00 0.00 88 1022.3
20180217183451 0 49 0.0 0.0 0.00 0.00 0.00 88 1022.2
20180217182952 0 49 0.0 0.0 0.00 0.00 0.00 88 1022.3
20180217182451 0 49 0.0 0.0 0.00 0.00 0.00 87 1022.2
20180217181949 0 49 0.0 0.0 0.00 0.00 0.00 87 1022.1
20180217181450 0 49 0.0 0.0 0.00 0.00 0.00 87 1022.1